[TLELIST]

Mailing List Information:

  • This mailing list is a public mailing list - anyone may join or leave, at any time.

  • This mailing list is announce-only.

International Space Station (ISS) / Hubble Space Telescope (HST) / Chandra X-Ray Observatory Orbital Data via EMAIL

Privacy Policy:

Private list

Archives:

[TLELIST] Current TLEs

Sent January 21st 2021

HST 1 20580U 90037B 21020.94958787 .00000490 00000-0 18732-4 0 9994 2 20580 28.4708 320.9968 0002456 272.6004 147.9838 15.09538620488796 ISS (ZARYA) 1 25544U 98067A 21021.39156028 .00000107 00000-0 99803-5 0 9992 2 25544 51.6457 348.7866 0000446 316.5433 144.8341 15.49302983265845 CXO 1 25867U 99040B 21022.65930144 .00000391 00000-0 00000-0 0 9992 2 25867 58.3436 260.5847 8092398 226.3891 0.1422 0.37801998 9880 ____________________________________________________________________ These 2-Line ...

[TLELIST] Current TLEs

Sent January 20th 2021

HST 1 20580U 90037B 21019.95710937 .00000463 00000-0 17117-4 0 9992 2 20580 28.4709 327.5623 0002471 261.0501 155.3797 15.09537892488640 ISS (ZARYA) 1 25544U 98067A 21020.42490477 -.00000015 00000-0 77934-5 0 9994 2 25544 51.6454 353.5712 0000394 310.6558 155.6518 15.49301528265694 CXO 1 25867U 99040B 21022.65930144 .00000391 00000-0 00000-0 0 9992 2 25867 58.3436 260.5847 8092398 226.3891 0.1422 0.37801998 9880 ____________________________________________________________________ These 2-Line ...

[TLELIST] Current TLEs

Sent January 19th 2021

HST 1 20580U 90037B 21019.18795139 .00000444 00000-0 15912-4 0 9994 2 20580 28.4710 332.6506 0002476 252.1106 296.1712 15.09537364488685 ISS (ZARYA) 1 25544U 98067A 21019.26407080 .00000787 00000-0 22186-4 0 9995 2 25544 51.6466 359.3118 0000279 283.9595 183.5470 15.49302228265512 CXO 1 25867U 99040B 21020.01556094 .00000345 00000-0 00000-0 0 9997 2 25867 58.3870 260.6562 8086119 226.4016 0.2574 0.37802522 9884 ____________________________________________________________________ These 2-Line ...

[TLELIST] Current TLEs

Sent January 18th 2021

HST 1 20580U 90037B 21017.59662416 .00000496 00000-0 19107-4 0 9995 2 20580 28.4711 343.1776 0002523 233.6918 289.6457 15.09536679488445 ISS (ZARYA) 1 25544U 98067A 21018.42396323 .00000576 00000-0 18407-4 0 9996 2 25544 51.6467 3.4695 0000261 274.2255 184.5001 15.49299389265386 CXO 1 25867U 99040B 21020.01556094 .00000345 00000-0 00000-0 0 9997 2 25867 58.3870 260.6562 8086119 226.4016 0.2574 0.37802522 9884 ____________________________________________________________________ These 2-Line ...

[TLELIST] Current TLEs

Sent January 17th 2021

HST 1 20580U 90037B 21016.33170597 .00000506 00000-0 19725-4 0 9998 2 20580 28.4712 351.5455 0002556 219.1525 256.5758 15.09535926488094 ISS (ZARYA) 1 25544U 98067A 21017.40142150 .00000564 00000-0 18190-4 0 9996 2 25544 51.6463 8.5294 0000314 253.5754 258.1853 15.49297023265225 CXO 1 25867U 99040B 21020.01520355 .00000345 00000-0 00000+0 0 9997 2 25867 58.3870 260.6563 8086109 226.4015 0.2089 0.37802799 21019 ____________________________________________________________________ These 2-Line ...

[TLELIST] Current TLEs

Sent January 16th 2021

HST 1 20580U 90037B 21015.67925567 .00000496 00000-0 19084-4 0 9995 2 20580 28.4712 355.8616 0002574 211.9126 311.1585 15.09535467487991 ISS (ZARYA) 1 25544U 98067A 21016.36863988 .00001366 00000-0 32598-4 0 9998 2 25544 51.6457 13.6401 0000235 231.5974 276.0641 15.49297929265068 CXO 1 25867U 99040B 21017.37004631 .00000349 00000-0 00000-0 0 9991 2 25867 58.4148 260.7149 8080392 226.4302 0.0942 0.37804695 9868 ____________________________________________________________________ These 2-Line ...

[TLELIST] Current TLEs

Sent January 15th 2021

HST 1 20580U 90037B 21015.20534441 .00000503 00000-0 19538-4 0 9994 2 20580 28.4712 358.9967 0002600 206.5276 256.0500 15.09535212488072 ISS (ZARYA) 1 25544U 98067A 21015.26182017 .00001768 00000-0 39819-4 0 9992 2 25544 51.6458 19.1177 0000366 230.0121 220.3312 15.49295652264891 CXO 1 25867U 99040B 21017.37004631 .00000349 00000-0 00000-0 0 9991 2 25867 58.4148 260.7149 8080392 226.4302 0.0942 0.37804695 9868 ____________________________________________________________________ These 2-Line ...

[TLELIST] Current TLEs

Sent January 14th 2021

HST 1 20580U 90037B 21013.69581631 .00000521 00000-0 20608-4 0 9998 2 20580 28.4713 8.9826 0002653 189.9964 333.0544 15.09534304487697 ISS (ZARYA) 1 25544U 98067A 21014.31054398 .00001697 00000-0 38545-4 0 9993 2 25544 51.6457 23.8259 0000410 224.6534 316.4858 15.49291243264748 CXO 1 25867U 99040B 21017.37004631 .00000349 00000-0 00000+0 0 9990 2 25867 58.4148 260.7149 8080392 226.4302 0.0942 0.37804695 21008 ____________________________________________________________________ These 2-Line ...

[TLELIST] Current TLEs

Sent January 13th 2021

HST 1 20580U 90037B 21012.70412600 .00000548 00000-0 22275-4 0 9999 2 20580 28.4713 15.5429 0002696 179.2736 343.9306 15.09533805487541 ISS (ZARYA) 1 25544U 98067A 21013.46059999 .00001407 00000-0 33353-4 0 9991 2 25544 51.6460 28.0330 0000426 223.0743 254.4188 15.49286428264613 CXO 1 25867U 99040B 21014.72699028 .00000359 00000-0 00000-0 0 9998 2 25867 58.4564 260.7885 8076144 226.4554 0.2346 0.37807204 9865 ____________________________________________________________________ These 2-Line ...

[TLELIST] Current TLEs

Sent January 12th 2021

HST 1 20580U 90037B 21011.43946257 .00000498 00000-0 19254-4 0 9995 2 20580 28.4712 23.9090 0002750 165.7617 311.2336 15.09532625487355 ISS (ZARYA) 1 25544U 98067A 21012.36590653 .00001229 00000-0 30152-4 0 9992 2 25544 51.6462 33.4496 0000452 211.9192 275.9732 15.49281578264446 CXO 1 25867U 99040B 21012.08483220 .00000341 00000-0 00000-0 0 9991 2 25867 58.5222 260.8760 8070837 226.4831 0.4997 0.37801937 9840 ____________________________________________________________________ These 2-Line ...

< < Previous

Index

 

this list's archives:

(archive rss , atom rss/atom )

Administration